Retour au catalogue

ATLAS 5 CENTAUR DEB

LostHEO
NORAD 49353·DEBRIS·🇺🇸 United States

Lancé Oct 17, 2018 depuis Cape Canaveral Space Force Station

Loading…

Prochains Passages (prochaines 24 heures)

TLE

PériméSource: Space-Track

Époque: Apr 22, 2025, 02:25 UTC

1 49353U 18079FE  25112.10117000 -.00000126  00000-0  00000-0 0  9990
2 49353  12.3587  49.7390 5247365 293.9389  20.7244  1.94958974  9957

Suivez ATLAS 5 CENTAUR DEB en temps réel avec AllMySat

Download on the App Store